Location: Unspecified
(0.0000°N, 0.0000°E)
Time: 10:47:04
(UTC+00:00)

Transit 4B - Pass Details

Date: 21 August 2024
Orbit: 947 x 1097 km, 32.4° (Epoch: 07 September)

Event Time Altitude Azimuth Distance (km) Brightness Sun altitude
Rises 20:42:57 0° 291° (WNW) 3,646 12.4 -39.0°
Reaches altitude 10° 20:45:45 10° 284° (WNW) 2,684 11.5 -39.7°
Enters shadow 20:49:05 29° 264° (W) 1,681 10.1 -40.5°
